Location: Ar Ranvel
(48.3000°N, 4.8833°W)
Time: 13:35:07
(UTC+00:00)

H-2A R/B - Pass Details

Date: 16 June 2021
Orbit: 574 x 597 km, 98.2° (Epoch: 04 August)

Event Time Altitude Azimuth Distance (km) Brightness Sun altitude
Rises 22:01:14 0° 19° (NNE) 2,800 7.5 -11.8°
Reaches altitude 10° 22:03:28 10° 25° (NNE) 1,895 6.5 -12.0°
Maximum altitude 22:07:26 47° 100° (E) 766 3.8 -12.4°
Enters shadow 22:10:12 18° 168° (SSE) 1,429 4.8 -12.6°
